Погода в Маркаколе

Казахстан     48°25′22″N   85°44′01″E
темп.,
°C
ветер,
м/с
пор.,
м/с
влажн.,
%
обл.,
%
осадки,
мм/ч
давл.,
гПа
погр.,
м
1 марта, пн
пн100:00−14ссв3382100 0.1 103672
03:00−13ссв3387100 0.3 103368
06:00−12ссв3392100 0.9 103271
09:00−10ссв2392100 0.9 1031182
12:00−7юв2479100 1.3 1028581
15:00−7вюв1283100 0.4 1026309
18:00−8св1192100 0.8 102725
21:00−8ссв2289100 0.4 102732
2 марта, вт
вт200:00−8ссв1192100 0.9 102727
03:00−8с1196100 1.3 102626
06:00−9ссв0196100 2.4 102621
09:00−8зсз0195100 1.1 102693
12:00−7ю2296100 2.1 1024222
15:00−7ююз1195100 1.3 1022162
18:00−8з0197100 3.2 102222
21:00−8ю1197100 2.3 102244
3 марта, ср
ср300:00−7ссз0197100 5.8 102128
03:00−7зюз1197100 3.4 102044
06:00−8ююз2297100 5.5 102258
09:00−8ююз1196100 0.9 102296
12:00−7ю2197100 1.2 1022216
15:00−6юз258898 0.1 1023633
18:00−10юз119982 0.1 1026111
21:00−12ссв228670 0.0 103023
4 марта, чт
чт400:00−14ссв336466 0.0 103224
03:00−15с445958 0.0 103225
06:00−15с445655 0.0 103330
09:00−13ссв336163 0.0 103334
12:00−8св126257 0.0 1031137
15:00−8всв117517 0.0 1029105
18:00−11ссв33649 0.0 103021
21:00−12ссв44600 0.0 103129
5 марта, пт
пт500:00−12с54503 0.0 103130
03:00−11ссв545530 0.0 102936
06:00−11ссв445666 0.0 102834
09:00−7ссв336392 0.0 102543
12:00−3з136996 0.0 1021474
15:00−4юз2492100 3.3 1024440
18:00−7з1297100 5.1 102825
21:00−10с228469 0.0 103221